Previsão horária em Abernethy

Hoje, 18 Abril, Domingo

Tempo Temperatura Precipitação Vento Pressão Humidade
00:00 +5°C° 0 mm 1 m/s 754 mmHg 85%
01:00 +5°C° 0 mm 1 m/s 754 mmHg 84%
02:00 +5°C° 0 mm 1 m/s 754 mmHg 83%
03:00 +4°C° 0 mm 1 m/s 754 mmHg 82%
04:00 +5°C° 0 mm 1 m/s 754 mmHg 80%
05:00 +5°C° 0 mm 1 m/s 754 mmHg 77%
06:00 +6°C° 0 mm 1 m/s 754 mmHg 75%
07:00 +7°C° 0 mm 1 m/s 754 mmHg 72%
08:00 +7°C° 0 mm 2 m/s 754 mmHg 68%
09:00 +8°C° 0 mm 3 m/s 754 mmHg 65%
10:00 +8°C° 0 mm 2 m/s 754 mmHg 66%
11:00 +7°C° 0 mm 2 m/s 754 mmHg 68%
12:00 +7°C° 0 mm 2 m/s 754 mmHg 70%
13:00 +7°C° 0 mm 2 m/s 754 mmHg 71%
14:00 +8°C° 0 mm 1 m/s 753 mmHg 71%
15:00 +8°C° 0 mm 1 m/s 753 mmHg 72%
16:00 +8°C° 0 mm 1 m/s 753 mmHg 74%
17:00 +8°C° 0 mm 1 m/s 754 mmHg 75%
18:00 +7°C° 0 mm 0 m/s 754 mmHg 77%
19:00 +7°C° 0 mm 0 m/s 754 mmHg 77%
20:00 +6°C° 0 mm 0 m/s 754 mmHg 78%
21:00 +6°C° 0 mm 0 m/s 754 mmHg 78%
22:00 +6°C° 0 mm 0 m/s 754 mmHg 79%
23:00 +6°C° 0 mm 0 m/s 754 mmHg 79%

Amanhã, 19 Abril, Segunda-feira

Tempo Temperatura Precipitação Vento Pressão Humidade
00:00 +6°C° 0 mm 0 m/s 753 mmHg 80%
01:00 +5°C° 0 mm 0 m/s 753 mmHg 82%
02:00 +5°C° 0 mm 0 m/s 753 mmHg 84%
03:00 +4°C° 0 mm 0 m/s 752 mmHg 85%
04:00 +4°C° 0 mm 0 m/s 752 mmHg 86%
05:00 +4°C° 0 mm 0 m/s 752 mmHg 86%
06:00 +4°C° 0 mm 0 m/s 752 mmHg 86%
07:00 +7°C° 0 mm 1 m/s 752 mmHg 80%
08:00 +9°C° 0 mm 1 m/s 752 mmHg 73%
09:00 +9°C° 0 mm 2 m/s 752 mmHg 67%
10:00 +10°C° 0 mm 2 m/s 751 mmHg 63%
11:00 +11°C° 0 mm 3 m/s 751 mmHg 60%
12:00 +12°C° 0 mm 3 m/s 751 mmHg 57%
13:00 +13°C° 0 mm 4 m/s 751 mmHg 56%
14:00 +13°C° 0 mm 4 m/s 750 mmHg 54%
15:00 +13°C° 0 mm 4 m/s 750 mmHg 53%
16:00 +12°C° 0 mm 4 m/s 750 mmHg 57%
17:00 +11°C° 0 mm 3 m/s 750 mmHg 61%
18:00 +11°C° 0 mm 3 m/s 750 mmHg 65%
19:00 +10°C° 0 mm 2 m/s 750 mmHg 69%
20:00 +8°C° 0 mm 2 m/s 750 mmHg 73%
21:00 +8°C° 0 mm 1 m/s 750 mmHg 77%
22:00 +8°C° 0 mm 1 m/s 750 mmHg 78%
23:00 +8°C° 0 mm 1 m/s 749 mmHg 79%

Depois de amanhã, 20 Abril, Terça-feira

Tempo Temperatura Precipitação Vento Pressão Humidade
00:00 +7°C° 0 mm 1 m/s 749 mmHg 79%
01:00 +7°C° 0 mm 1 m/s 749 mmHg 80%
02:00 +7°C° 0 mm 1 m/s 749 mmHg 81%
03:00 +7°C° 0 mm 1 m/s 749 mmHg 82%
04:00 +7°C° 0.1 mm 1 m/s 749 mmHg 83%
05:00 +7°C° 0.1 mm 1 m/s 750 mmHg 84%
06:00 +7°C° 0.1 mm 1 m/s 750 mmHg 85%
07:00 +7°C° 0.5 mm 1 m/s 750 mmHg 87%
08:00 +7°C° 0.5 mm 1 m/s 750 mmHg 89%
09:00 +6°C° 0.5 mm 2 m/s 751 mmHg 90%
10:00 +7°C° 0.2 mm 2 m/s 751 mmHg 90%
11:00 +8°C° 0.2 mm 1 m/s 751 mmHg 89%
12:00 +8°C° 0.2 mm 1 m/s 751 mmHg 88%
13:00 +8°C° 0.1 mm 1 m/s 751 mmHg 87%
14:00 +9°C° 0.1 mm 1 m/s 752 mmHg 86%
15:00 +8°C° 0.1 mm 0 m/s 752 mmHg 85%
16:00 +9°C° 0 mm 1 m/s 752 mmHg 86%
17:00 +8°C° 0 mm 1 m/s 752 mmHg 87%
18:00 +7°C° 0 mm 2 m/s 753 mmHg 88%
19:00 +8°C° 0 mm 1 m/s 753 mmHg 90%
20:00 +7°C° 0 mm 1 m/s 753 mmHg 91%
21:00 +7°C° 0 mm 1 m/s 754 mmHg 93%
22:00 +6°C° 0 mm 1 m/s 754 mmHg 92%
23:00 +6°C° 0 mm 1 m/s 754 mmHg 91%

21 Abril, Quarta-feira

Tempo Temperatura Precipitação Vento Pressão Humidade
00:00 +6°C° 0 mm 1 m/s 754 mmHg 90%
01:00 +6°C° 0 mm 1 m/s 754 mmHg 89%
02:00 +6°C° 0 mm 1 m/s 754 mmHg 88%
03:00 +5°C° 0 mm 1 m/s 754 mmHg 88%
04:00 +4°C° 0 mm 0 m/s 754 mmHg 86%
05:00 +4°C° 0 mm 0 m/s 754 mmHg 85%
06:00 +4°C° 0 mm 0 m/s 754 mmHg 84%
07:00 +6°C° 0 mm 0 m/s 755 mmHg 78%
08:00 +7°C° 0 mm 0 m/s 755 mmHg 72%
09:00 +8°C° 0 mm 0 m/s 755 mmHg 66%
10:00 +9°C° 0 mm 0 m/s 755 mmHg 61%
11:00 +11°C° 0 mm 1 m/s 755 mmHg 56%
12:00 +12°C° 0 mm 1 m/s 754 mmHg 51%
13:00 +12°C° 0 mm 1 m/s 754 mmHg 51%
14:00 +13°C° 0 mm 2 m/s 754 mmHg 50%
15:00 +13°C° 0 mm 2 m/s 754 mmHg 50%
16:00 +11°C° 0 mm 3 m/s 754 mmHg 55%
17:00 +10°C° 0 mm 3 m/s 754 mmHg 60%
18:00 +9°C° 0 mm 3 m/s 755 mmHg 65%
19:00 +7°C° 0 mm 3 m/s 755 mmHg 71%
20:00 +6°C° 0 mm 2 m/s 755 mmHg 77%
21:00 +4°C° 0 mm 2 m/s 755 mmHg 83%
22:00 +5°C° 0 mm 1 m/s 755 mmHg 84%
23:00 +4°C° 0 mm 1 m/s 755 mmHg 85%

22 Abril, Quinta-feira

Tempo Temperatura Precipitação Vento Pressão Humidade
00:00 +4°C° 0 mm 1 m/s 755 mmHg 87%
01:00 +4°C° 0 mm 1 m/s 755 mmHg 87%
02:00 +2°C° 0 mm 0 m/s 756 mmHg 87%
03:00 +2°C° 0 mm 0 m/s 756 mmHg 87%
04:00 +3°C° 0 mm 0 m/s 756 mmHg 86%
05:00 +3°C° 0 mm 0 m/s 756 mmHg 84%
06:00 +3°C° 0 mm 0 m/s 756 mmHg 83%
07:00 +6°C° 0 mm 1 m/s 756 mmHg 76%
08:00 +8°C° 0 mm 1 m/s 756 mmHg 70%
09:00 +10°C° 0 mm 1 m/s 756 mmHg 64%
10:00 +11°C° 0 mm 1 m/s 756 mmHg 60%
11:00 +13°C° 0 mm 1 m/s 756 mmHg 57%
12:00 +14°C° 0 mm 1 m/s 756 mmHg 54%
13:00 +14°C° 0 mm 2 m/s 756 mmHg 53%
14:00 +15°C° 0 mm 2 m/s 755 mmHg 52%
15:00 +14°C° 0 mm 3 m/s 755 mmHg 51%
16:00 +13°C° 0 mm 3 m/s 755 mmHg 57%
17:00 +12°C° 0 mm 3 m/s 755 mmHg 63%
18:00 +11°C° 0 mm 3 m/s 755 mmHg 69%
19:00 +9°C° 0 mm 2 m/s 756 mmHg 75%
20:00 +7°C° 0 mm 2 m/s 756 mmHg 82%
21:00 +6°C° 0 mm 2 m/s 756 mmHg 88%
22:00 +5°C° 0 mm 2 m/s 756 mmHg 88%
23:00 +6°C° 0 mm 1 m/s 756 mmHg 88%

23 Abril, Sexta-feira

Tempo Temperatura Precipitação Vento Pressão Humidade
00:00 +5°C° 0 mm 1 m/s 756 mmHg 89%
01:00 +5°C° 0 mm 1 m/s 756 mmHg 89%
02:00 +5°C° 0 mm 1 m/s 756 mmHg 89%
03:00 +4°C° 0 mm 1 m/s 756 mmHg 88%
04:00 +5°C° 0 mm 1 m/s 756 mmHg 87%
05:00 +5°C° 0 mm 1 m/s 756 mmHg 85%
06:00 +5°C° 0 mm 1 m/s 755 mmHg 83%
07:00 +6°C° 0 mm 2 m/s 756 mmHg 74%
08:00 +8°C° 0 mm 2 m/s 756 mmHg 65%
09:00 +10°C° 0 mm 2 m/s 756 mmHg 56%
10:00 +11°C° 0 mm 3 m/s 755 mmHg 51%
11:00 +11°C° 0 mm 3 m/s 755 mmHg 47%
12:00 +12°C° 0 mm 4 m/s 755 mmHg 42%
13:00 +12°C° 0 mm 4 m/s 754 mmHg 45%
14:00 +12°C° 0 mm 4 m/s 754 mmHg 48%
15:00 +12°C° 0 mm 5 m/s 754 mmHg 51%
16:00 +11°C° 0 mm 4 m/s 754 mmHg 57%
17:00 +10°C° 0 mm 4 m/s 754 mmHg 63%
18:00 +8°C° 0 mm 4 m/s 754 mmHg 69%
19:00 +6°C° 0 mm 4 m/s 754 mmHg 75%
20:00 +5°C° 0 mm 3 m/s 754 mmHg 81%
21:00 +3°C° 0 mm 3 m/s 754 mmHg 87%
22:00 +3°C° 0 mm 3 m/s 754 mmHg 87%
23:00 +3°C° 0 mm 3 m/s 754 mmHg 88%
Mostrar mais